Location: Bun Machan
(52.1403°N, 7.3744°W)
Time: 07:13:20
(UTC+00:00)

SL-8 R/B - Pass Details

Date: 14 July 2020
Orbit: 656 x 668 km, 48.4° (Epoch: 05 August)

Event Time Altitude Azimuth Distance (km) Brightness Sun altitude
Exits shadow 03:24:33 - 251° (WSW) 2,501 6.2 -7.5°
Reaches altitude 10° 03:25:39 10° 249° (WSW) 2,084 5.7 -7.4°
Maximum altitude 03:30:20 54° 173° (S) 809 3.9 -7.0°
Drops below altitude 10° 03:35:00 10° 97° (E) 2,078 6.8 -6.5°
Sets 03:37:23 0° 92° (E) 2,989 7.7 -6.3°
